NIMBUS 7

Satellite information

Favourite Embed

Satellite Type and Status

PAYLOADIN ORBIT

Key statistics

Satellite NIMBUS 7 at a glance.

Uptime

16998

Days in orbit

Revolutions

≈ 13.8

Per day

Orbit

SSO

Sun Synchronous Orbit

Inclination

99.5

Latest

Satellite identification and parameters

Extended collection of information and parameters for NIMBUS 7.

Object identification

Identified? True

Debris? False

Object name: NIMBUS 7

International designator: 1978-098A

Object number (NORAD): 11080

Object ID (CCSDS): 11080

Country: UNITED STATES OF AMERICA (US)

Current information (Y/N): Y

RCS size: LARGE

Orbital parameters

Period: 104.01 minutes

Inclination: 99.5285 deg

SMA: 7326.173 km

Apoapsis: 953.894 km

Periapsis: 942.183 km

RAAN: 2.2914 deg

Eccentricy: 0.0007993

Argument of periapsis: 266.1746 deg

Mean anomaly: 93.8495 deg

Mean motion: 13.84480882 rev/day

Mean motion (dot): 0.0000001 rev/day2

B* drag term: 0.000050147 1/REarth

Two-line elements (TLE)

Creation date: May 8, 2025, 3:01 a.m.

Reference frame: TEME

Reference center: EARTH

Epoch: May 7, 2025, 2:30 p.m. UTC

TLE line 0: 0 NIMBUS 7

TLE line 1: 1 11080U 78098A 25127.60478423 .00000010 00000-0 50147-4 0 9995

TLE line 2: 2 11080 99.5285 2.2914 0007993 266.1746 93.8495 13.84480882350572

Live tracking on map

Real-time ground track for satellite NIMBUS 7.

In-orbit conjunctions

A list of the most updated potential collisions computed for object NIMBUS 7.

Target Orbit TCA Probability of collision Miss distance Type
FENGYUN 1C DEB SSO 2025-02-03 02:47:28 0.0001138064 693.0 (m) DEBRIS
SL-14 R/B LEO 2024-08-09 06:06:43 0.001264182 43.0 (m) ROCKET BODY
COSMOS 1275 DEB LEO 2024-06-19 03:52:55 0.0009966641 108.0 (m) DEBRIS

Associated space launch

Research and development satellite in polar orbit

NIMBUS 7 was lifted into orbit during the mission ‘Delta 2910 | Nimbus 7’, on board a Delta 2910 space rocket.

The launch took place on Oct. 24, 1978, 8:14 a.m. from Space Launch Complex 2W.

For more information about the launch, click the button.

Launch to space Delta 2910 | Nimbus 7
Delta 2910 | Nimbus 7

Agency: N/A

Status: Launch Successful

Launch date: Oct. 24, 1978, 8:14 a.m. UTC

Rocket: Delta 2910

Launch pad: Space Launch Complex 2W

Location: Vandenberg SFB, CA, USA

...

Latest news about this satellite

There are no fresh news available about this satellite. Check back as we update our databases every day.


Newsletter sign-up

Weekly statistics, charts and insights to help you stay on top of the space industry.